Hourly Weather Roundup
Issued by NWS Central Illinois

Home | Current Version | Previous Version | Text Only | Print | Product List | Glossary On
Versions: 1 2 3 4 5 6 7 8 9 10 11 12 13 14 15 16 17 18 19 20 21 22 23 24 25 26 27 28 29 30 31 32 33 34 35 36 37 38 39 40 41 42 43 44 45 46 47 48 49 50
549
NZUS43 KILX 300710
HWRILX

AREA WEATHER ROUNDUP
NATIONAL WEATHER SERVICE, LINCOLN IL
200 AM CDT SAT JUL 30 2016


CITY           SKY/WX    TMP DP  RH WIND       PRES   REMARKS
BLOOMINGTON    FOG       66  66 100 N7        29.93F VSB 3/4
CHAMPAIGN      CLEAR     66  64  93 W3        29.92F
DANVILLE       CLEAR     66  66  99 CALM      29.89S FOG
DECATUR        CLEAR     70  65  84 W6        29.93S
EFFINGHAM      CLOUDY    70  70 100 CALM      29.94S
FLORA          CLOUDY    72  70  96 SW3       29.93S
GALESBURG      CLOUDY    68  67  97 N3        29.95S
JACKSONVILLE   CLEAR     65  64  96 W5        29.94F
LACON          MOCLDY    69  67  96 CALM      29.93S FOG
LAWRENCEVILLE  CLOUDY    70  69  97 SW3         N/A
LITCHFIELD       N/A    N/A N/A N/A MISG        N/A
$$


CITY           SKY/WX    TMP DP  RH WIND       PRES   REMARKS
LINCOLN        PTCLDY    68  67  95 CALM      29.93S
MACOMB         PTCLDY    64  64  98 CALM      29.97S
MATTOON        CLEAR     70  65  84 W6        29.92S
MT CARMEL AP   FOG       69  68  97 CALM      29.92S VSB 3/4
OLNEY-NOBLE AP PTCLDY    68  68 100 CALM      29.93S FOG
PARIS          CLEAR     66  66 100 CALM      29.92S
PEORIA         CLOUDY    71  69  93 VRB5      29.92F FOG
PONTIAC        NOT AVBL
RANTOUL        NOT AVBL
ROBINSON       CLEAR     67  66  99 CALM      29.92S
SPRINGFIELD    PTCLDY    68  65  90 W3        29.94S
TAYLORVILLE    CLEAR     64  64  99 MISG      29.95R
$$

...REGIONAL REPORTS...


CITY           SKY/WX    TMP DP  RH WIND       PRES   REMARKS
CHICAGO O`HARE MOCLDY    71  66  84 VRB6      29.93F
KANKAKEE       CLEAR     67  65  96 CALM      29.93S FOG
MOLINE         CLOUDY    71  66  84 E10       29.94F
MOUNT STERLING CLEAR     65  64  94 W6        29.95R
MOUNT VERNON   CLOUDY    73  68  83 SW3       29.95S
PITTSFIELD     CLEAR     67  65  94 W5        29.96F
QUINCY         CLEAR     66  66 100 W5        29.95F
ROCKFORD       CLOUDY    69  65  86 NE5       29.97S
$$


CITY           SKY/WX    TMP DP  RH WIND       PRES   REMARKS
BURLINGTON     CLOUDY    69  68  96 N5        29.95S
CEDAR RAPIDS   CLOUDY    68  68 100 N5        29.97F
DES MOINES     MOCLDY    69  65  86 N3        29.99F
KIRKSVILLE     CLEAR     62  60  93 W3        30.00S
OTTUMWA        CLOUDY    66  64  93 NW5       29.98S
ST LOUIS       PTCLDY    74  67  78 CALM      29.96S
$$


CITY           SKY/WX    TMP DP  RH WIND       PRES   REMARKS
TERRE HAUTE    CLEAR     70  67  90 W5        29.91S
EVANSVILLE     MOCLDY    72  70  93 SW5       29.93S
INDIANAPOLIS   CLOUDY    70  67  90 SW7       29.91F
LAFAYETTE      CLEAR     68  68 100 E5        29.90F
MADISON        CLOUDY    65  60  84 CALM      29.99S
MILWAUKEE      PTCLDY    70  60  70 E12       29.97F
$$






USA.gov is the U.S. government's official web portal to all federal, state and local government web resources and services.